User: anonymous   Login
Location: Albany
(35.0000°S, 118.0000°E)
Time: 01:07:31
(UTC-04:00)
Language:

Cosmos 1346 Rocket - Orbit

View from above orbital plane
View from above orbital plane
View from above satellite
View from above satellite

Ground track
Ground track

The orbit data is extracted from the following two-line orbital elements,

1 13121U 82027B   16270.54133301  .00000144  00000-0  77617-5 0  9995
2 13121  81.1653  61.9997 0025342 323.7143  36.2361 15.08013584877248
Epoch (UTC): 26 September 2016 12:59:31
Eccentricity: 0.0025342
inclination: 81.1653°
perigee height: 525 km
apogee height: 560 km
right ascension of ascending node: 61.9997°
argument of perigee: 323.7143°
revolutions per day: 15.08013584
mean anomaly at epoch: 36.2361°
orbit number at epoch: 87724

The dashed part of the orbit path shows where the satellite is in the earth's shadow,  

DLR